| time (UTC) | temp F | wind direction | speed knots | gust knots | rain 1hr in | rain 24hr in | rain mn in | humidity % | barometer mb |
| 20260508090707 | 33 | 149 | 0.9 | 3.5 | 0.00 | 0.00 | 0.00 | 89 | 1005.1 |
| 20260508090207 | 33 | 143 | 0.0 | 2.6 | 0.00 | 0.00 | 0.00 | 89 | 1005.1 |
| 20260508090046 | 33 | 143 | 0.9 | 2.6 | 0.00 | 0.00 | 0.00 | 89 | 1005.1 |
| 20260508085707 | 33 | 156 | 0.9 | 2.6 | 0.00 | 0.01 | 0.00 | 89 | 1005.1 |
| 20260508085206 | 33 | 146 | 0.0 | 1.7 | 0.00 | 0.01 | 0.00 | 89 | 1005.0 |
| 20260508084706 | 33 | 146 | 0.0 | 2.6 | 0.00 | 0.01 | 0.00 | 89 | 1004.9 |
| 20260508084527 | 33 | 146 | 0.0 | 2.6 | 0.00 | 0.01 | 0.00 | 89 | 1005.0 |
| 20260508084206 | 33 | 145 | 0.9 | 2.6 | 0.00 | 0.01 | 0.00 | 89 | 1005.0 |
| 20260508083706 | 33 | 147 | 0.0 | 2.6 | 0.00 | 0.01 | 0.00 | 89 | 1004.9 |
| 20260508083205 | 33 | 147 | 0.9 | 4.3 | 0.00 | 0.01 | 0.00 | 88 | 1005.0 |
| 20260508083023 | 33 | 147 | 0.0 | 4.3 | 0.00 | 0.01 | 0.00 | 88 | 1005.0 |
| 20260508082705 | 33 | 147 | 0.9 | 4.3 | 0.00 | 0.01 | 0.00 | 89 | 1005.0 |
| 20260508082144 | 33 | 173 | 0.9 | 3.5 | 0.00 | 0.01 | 0.00 | 90 | 1005.0 |
| 20260508081644 | 33 | 154 | 0.0 | 2.6 | 0.00 | 0.01 | 0.00 | 89 | 1005.1 |
| 20260508081143 | 33 | 156 | 0.9 | 2.6 | 0.00 | 0.01 | 0.00 | 89 | 1005.0 |
| 20260508080643 | 33 | 149 | 0.0 | 3.5 | 0.00 | 0.01 | 0.00 | 89 | 1005.0 |
| 20260508080143 | 33 | 151 | 0.9 | 3.5 | 0.00 | 0.01 | 0.00 | 89 | 1005.0 |
| 20260508075642 | 33 | 156 | 0.9 | 3.5 | 0.00 | 0.01 | 0.00 | 89 | 1005.0 |
| 20260508075142 | 33 | 145 | 0.0 | 4.3 | 0.00 | 0.01 | 0.00 | 89 | 1004.9 |
| 20260508074642 | 33 | 141 | 0.9 | 4.3 | 0.00 | 0.01 | 0.00 | 89 | 1004.9 |
| 20260508074100 | 33 | 146 | 0.0 | 2.6 | 0.00 | 0.01 | 0.00 | 89 | 1004.9 |
| 20260508073538 | 32 | 145 | 0.0 | 1.7 | 0.00 | 0.01 | 0.00 | 90 | 1004.9 |
| 20260508073038 | 32 | 145 | 0.0 | 1.7 | 0.00 | 0.01 | 0.00 | 91 | 1004.9 |
| 20260508072456 | 32 | 145 | 0.0 | 0.9 | 0.00 | 0.01 | 0.00 | 91 | 1004.9 |
| 20260508071934 | 32 | 145 | 0.0 | 2.6 | 0.00 | 0.01 | 0.00 | 91 | 1004.8 |
| 20260508071434 | 32 | 145 | 0.9 | 2.6 | 0.00 | 0.01 | 0.00 | 90 | 1004.9 |
| 20260508070934 | 32 | 149 | 0.9 | 1.7 | 0.00 | 0.01 | 0.00 | 91 | 1004.9 |
| 20260508070351 | 32 | 149 | 0.0 | 0.9 | 0.00 | 0.01 | 0.00 | 89 | 1004.9 |
| 20260508065851 | 32 | 149 | 0.0 | 0.9 | 0.00 | 0.02 | 0.00 | 89 | 1005.0 |
| 20260508065329 | 33 | 149 | 0.0 | 0.9 | 0.00 | 0.02 | 0.00 | 89 | 1005.0 |
| 20260508064829 | 33 | 149 | 0.0 | 0.9 | 0.00 | 0.02 | 0.00 | 89 | 1005.0 |
| 20260508064329 | 33 | 149 | 0.0 | 0.0 | 0.00 | 0.02 | 0.00 | 88 | 1005.0 |
| 20260508063828 | 33 | 149 | 0.0 | 0.9 | 0.00 | 0.02 | 0.00 | 88 | 1005.0 |
| 20260508063328 | 34 | 149 | 0.0 | 0.9 | 0.00 | 0.02 | 0.00 | 88 | 1005.1 |
| 20260508062827 | 34 | 149 | 0.0 | 1.7 | 0.00 | 0.02 | 0.00 | 88 | 1005.2 |
| 20260508062327 | 34 | 149 | 0.0 | 1.7 | 0.00 | 0.02 | 0.00 | 86 | 1005.2 |
| 20260508061827 | 34 | 149 | 0.0 | 1.7 | 0.00 | 0.02 | 0.00 | 86 | 1005.3 |
| 20260508061326 | 35 | 150 | 0.0 | 0.9 | 0.00 | 0.02 | 0.00 | 85 | 1005.4 |
| 20260508060826 | 35 | 150 | 0.0 | 0.9 | 0.00 | 0.02 | 0.00 | 84 | 1005.4 |
| 20260508060222 | 35 | 150 | 0.0 | 1.7 | 0.00 | 0.02 | 0.00 | 85 | 1005.5 |
| 20260508055722 | 35 | 150 | 0.0 | 1.7 | 0.00 | 0.08 | 0.00 | 83 | 1005.6 |
| 20260508055222 | 35 | 150 | 0.0 | 0.9 | 0.00 | 0.08 | 0.00 | 84 | 1005.6 |
| 20260508054700 | 35 | 150 | 0.0 | 0.9 | 0.00 | 0.08 | 0.00 | 83 | 1005.6 |
| 20260508054200 | 36 | 150 | 0.0 | 1.7 | 0.00 | 0.08 | 0.00 | 81 | 1005.6 |
| 20260508053638 | 36 | 150 | 0.0 | 2.6 | 0.00 | 0.08 | 0.00 | 82 | 1005.6 |
| 20260508053150 | 36 | 150 | 0.0 | 3.5 | 0.00 | 0.08 | 0.00 | 83 | 1005.6 |
| 20260508053138 | 36 | 150 | 0.0 | 3.5 | 0.00 | 0.08 | 0.00 | 82 | 1005.6 |
| 20260508052617 | 36 | 149 | 0.9 | 4.3 | 0.00 | 0.08 | 0.00 | 83 | 1005.7 |
| 20260508052116 | 36 | 168 | 1.7 | 4.3 | 0.00 | 0.08 | 0.00 | 82 | 1005.6 |
| 20260508051631 | 36 | 146 | 1.7 | 4.3 | 0.00 | 0.08 | 0.00 | 83 | 1005.7 |
| 20260508051616 | 36 | 146 | 1.7 | 4.3 | 0.00 | 0.08 | 0.00 | 82 | 1005.6 |
| 20260508051116 | 36 | 166 | 0.9 | 3.5 | 0.00 | 0.08 | 0.00 | 84 | 1005.6 |
| 20260508050615 | 37 | 169 | 0.0 | 4.3 | 0.00 | 0.08 | 0.00 | 83 | 1005.7 |
| 20260508050115 | 36 | 150 | 0.9 | 3.5 | 0.00 | 0.08 | 0.00 | 81 | 1005.7 |
| 20260508050109 | 36 | 150 | 0.9 | 3.5 | 0.00 | 0.08 | 0.00 | 81 | 1005.8 |
| 20260508045615 | 37 | 147 | 0.9 | 3.5 | 0.00 | 0.16 | 0.00 | 80 | 1005.7 |
| 20260508045115 | 36 | 142 | 0.9 | 4.3 | 0.00 | 0.16 | 0.00 | 79 | 1005.7 |
| 20260508044614 | 36 | 135 | 0.9 | 4.3 | 0.00 | 0.16 | 0.00 | 81 | 1005.7 |
| 20260508044552 | 36 | 143 | 0.9 | 4.3 | 0.00 | 0.16 | 0.00 | 81 | 1005.7 |
| 20260508044114 | 37 | 144 | 0.9 | 4.3 | 0.00 | 0.16 | 0.00 | 81 | 1005.7 |
| 20260508043614 | 37 | 137 | 1.7 | 4.3 | 0.00 | 0.16 | 0.00 | 82 | 1005.7 |
| 20260508043113 | 37 | 144 | 0.9 | 3.5 | 0.00 | 0.16 | 0.00 | 81 | 1005.8 |
| 20260508043038 | 37 | 145 | 0.9 | 3.5 | 0.00 | 0.16 | 0.00 | 81 | 1005.9 |
| 20260508042531 | 37 | 152 | 0.9 | 3.5 | 0.00 | 0.16 | 0.00 | 79 | 1005.7 |
| 20260508042031 | 37 | 124 | 0.9 | 4.3 | 0.00 | 0.16 | 0.00 | 79 | 1005.8 |
| 20260508041520 | 37 | 129 | 1.7 | 4.3 | 0.00 | 0.16 | 0.00 | 78 | 1005.9 |
| 20260508041509 | 37 | 129 | 1.7 | 4.3 | 0.00 | 0.16 | 0.00 | 78 | 1005.9 |
| 20260508041009 | 37 | 140 | 1.7 | 2.6 | 0.00 | 0.16 | 0.00 | 79 | 1005.9 |
| 20260508040509 | 37 | 112 | 0.9 | 2.6 | 0.00 | 0.16 | 0.00 | 78 | 1006.0 |
| 20260508040009 | 37 | 108 | 0.0 | 0.9 | 0.00 | 0.16 | 0.00 | 78 | 1006.0 |
| 20260508035508 | 38 | 108 | 0.0 | 1.7 | 0.00 | 0.21 | 0.16 | 78 | 1006.1 |
| 20260508035008 | 38 | 108 | 0.0 | 1.7 | 0.00 | 0.21 | 0.16 | 77 | 1006.1 |
| 20260508034508 | 38 | 108 | 0.9 | 2.6 | 0.00 | 0.21 | 0.16 | 74 | 1006.1 |
| 20260508034008 | 38 | 108 | 0.9 | 4.3 | 0.00 | 0.21 | 0.16 | 73 | 1006.0 |
| 20260508033446 | 38 | 112 | 0.9 | 4.3 | 0.00 | 0.21 | 0.16 | 77 | 1005.9 |
| 20260508032925 | 38 | 150 | 0.0 | 3.5 | 0.00 | 0.21 | 0.16 | 79 | 1005.9 |
| 20260508032425 | 37 | 156 | 0.9 | 3.5 | 0.00 | 0.21 | 0.16 | 80 | 1005.9 |
| 20260508031924 | 38 | 149 | 0.9 | 2.6 | 0.00 | 0.21 | 0.16 | 81 | 1005.9 |
| 20260508031424 | 38 | 153 | 0.9 | 2.6 | 0.00 | 0.21 | 0.16 | 78 | 1006.0 |
| 20260508030924 | 38 | 155 | 0.0 | 0.9 | 0.00 | 0.21 | 0.16 | 77 | 1005.9 |
| 20260508030423 | 38 | 155 | 0.0 | 0.9 | 0.00 | 0.21 | 0.16 | 76 | 1005.8 |
| 20260508025902 | 39 | 155 | 0.0 | 1.7 | 0.00 | 0.27 | 0.16 | 75 | 1005.9 |
| 20260508025401 | 39 | 155 | 0.0 | 2.6 | 0.00 | 0.27 | 0.16 | 74 | 1005.9 |
| 20260508024901 | 40 | 156 | 0.9 | 2.6 | 0.00 | 0.27 | 0.16 | 71 | 1005.8 |
| 20260508024401 | 40 | 156 | 0.0 | 2.6 | 0.00 | 0.27 | 0.16 | 72 | 1005.8 |
| 20260508023900 | 41 | 156 | 0.9 | 2.6 | 0.00 | 0.27 | 0.16 | 71 | 1005.9 |
| 20260508023400 | 41 | 199 | 0.9 | 3.5 | 0.00 | 0.27 | 0.16 | 68 | 1005.9 |
| 20260508022900 | 41 | 204 | 0.0 | 3.5 | 0.00 | 0.27 | 0.16 | 68 | 1005.8 |
| 20260508022359 | 42 | 206 | 0.9 | 2.6 | 0.00 | 0.27 | 0.16 | 66 | 1005.8 |
| 20260508021859 | 43 | 206 | 0.9 | 3.5 | 0.00 | 0.27 | 0.16 | 65 | 1005.8 |
| 20260508021338 | 43 | 206 | 0.0 | 3.5 | 0.00 | 0.27 | 0.16 | 60 | 1005.8 |
| 20260508020837 | 43 | 207 | 0.9 | 3.5 | 0.00 | 0.27 | 0.16 | 57 | 1005.9 |
| 20260508020337 | 44 | 231 | 0.9 | 3.5 | 0.00 | 0.27 | 0.16 | 56 | 1005.9 |
| 20260508015836 | 44 | 228 | 0.9 | 2.6 | 0.00 | 0.28 | 0.16 | 58 | 1005.9 |
| 20260508015336 | 45 | 228 | 0.0 | 3.5 | 0.00 | 0.28 | 0.16 | 60 | 1005.9 |
| 20260508014836 | 45 | 230 | 1.7 | 6.1 | 0.00 | 0.28 | 0.16 | 55 | 1005.9 |
| 20260508014335 | 45 | 228 | 1.7 | 7.0 | 0.00 | 0.28 | 0.16 | 57 | 1005.7 |
| 20260508013835 | 45 | 228 | 2.6 | 7.0 | 0.00 | 0.28 | 0.16 | 56 | 1005.8 |
| 20260508013335 | 45 | 224 | 3.5 | 7.0 | 0.00 | 0.28 | 0.16 | 55 | 1005.8 |
| 20260508012834 | 45 | 218 | 2.6 | 7.0 | 0.00 | 0.28 | 0.16 | 58 | 1005.8 |
| 20260508012334 | 45 | 206 | 2.6 | 6.1 | 0.00 | 0.28 | 0.16 | 58 | 1005.8 |
| 20260508011813 | 45 | 214 | 2.6 | 6.1 | 0.00 | 0.28 | 0.16 | 56 | 1005.7 |
| 20260508011702 | 46 | 206 | 2.6 | 7.8 | 0.00 | 0.28 | 0.16 | 62 | 1005.8 |
| 20260508011312 | 46 | 228 | 1.7 | 7.8 | 0.00 | 0.28 | 0.16 | 54 | 1005.7 |
| 20260508010812 | 46 | 256 | 2.6 | 6.1 | 0.00 | 0.28 | 0.16 | 52 | 1005.7 |
| 20260508010312 | 46 | 233 | 3.5 | 7.0 | 0.00 | 0.28 | 0.16 | 54 | 1005.7 |
| 20260508010145 | 46 | 232 | 2.6 | 7.0 | 0.00 | 0.28 | 0.16 | 55 | 1005.8 |
| 20260508005811 | 46 | 224 | 1.7 | 7.0 | 0.00 | 0.31 | 0.16 | 53 | 1005.8 |
| 20260508005311 | 47 | 231 | 1.7 | 5.2 | 0.00 | 0.31 | 0.16 | 52 | 1005.8 |
| 20260508004811 | 47 | 226 | 0.9 | 7.8 | 0.00 | 0.31 | 0.16 | 52 | 1005.7 |
| 20260508004632 | 47 | 226 | 0.9 | 7.8 | 0.00 | 0.31 | 0.16 | 52 | 1005.8 |
| 20260508004311 | 47 | 226 | 3.5 | 7.8 | 0.00 | 0.31 | 0.16 | 50 | 1005.7 |
| 20260508003810 | 47 | 236 | 2.6 | 7.8 | 0.00 | 0.31 | 0.16 | 50 | 1005.7 |
| 20260508003310 | 48 | 237 | 2.6 | 10.4 | 0.00 | 0.31 | 0.16 | 50 | 1005.6 |
| 20260508003122 | 48 | 249 | 3.5 | 10.4 | 0.00 | 0.31 | 0.16 | 49 | 1005.5 |
| 20260508002810 | 48 | 220 | 6.1 | 10.4 | 0.00 | 0.31 | 0.16 | 49 | 1005.5 |
| 20260508002248 | 48 | 226 | 2.6 | 7.8 | 0.00 | 0.31 | 0.16 | 50 | 1005.5 |
| 20260508001748 | 48 | 241 | 2.6 | 8.7 | 0.00 | 0.31 | 0.16 | 52 | 1005.5 |
| 20260508001553 | 48 | 256 | 0.9 | 8.7 | 0.00 | 0.31 | 0.16 | 50 | 1005.5 |
| 20260508001248 | 48 | 260 | 2.6 | 10.4 | 0.00 | 0.31 | 0.16 | 49 | 1005.4 |
| 20260508000747 | 49 | 248 | 3.5 | 11.3 | 0.00 | 0.31 | 0.16 | 48 | 1005.3 |
| 20260508000249 | 49 | 230 | 6.1 | 15.6 | 0.00 | 0.31 | 0.16 | 48 | 1005.3 |
| 20260508000043 | 49 | 249 | 4.3 | 15.6 | 0.00 | 0.31 | 0.16 | 48 | 1005.4 |
| 20260507235746 | 49 | 218 | 7.0 | 15.6 | 0.00 | 0.32 | 0.16 | 48 | 1005.2 |
| 20260507235246 | 49 | 249 | 3.5 | 10.4 | 0.00 | 0.32 | 0.16 | 48 | 1005.2 |
| 20260507234746 | 50 | 199 | 7.8 | 14.8 | 0.00 | 0.32 | 0.16 | 48 | 1005.1 |
| 20260507234519 | 50 | 232 | 2.6 | 14.8 | 0.00 | 0.32 | 0.16 | 47 | 1005.1 |
| 20260507234245 | 50 | 228 | 5.2 | 14.8 | 0.00 | 0.32 | 0.16 | 46 | 1005.0 |
| 20260507233745 | 51 | 218 | 6.1 | 12.2 | 0.00 | 0.32 | 0.16 | 46 | 1004.9 |
| 20260507233245 | 51 | 203 | 4.3 | 11.3 | 0.00 | 0.32 | 0.16 | 45 | 1004.8 |
| 20260507233002 | 51 | 219 | 6.1 | 13.9 | 0.00 | 0.32 | 0.16 | 45 | 1004.8 |
| 20260507232744 | 51 | 211 | 7.0 | 13.9 | 0.00 | 0.32 | 0.16 | 44 | 1004.6 |
| 20260507232244 | 52 | 223 | 5.2 | 12.2 | 0.00 | 0.32 | 0.16 | 44 | 1004.6 |
| 20260507231701 | 52 | 285 | 7.8 | 13.9 | 0.00 | 0.32 | 0.16 | 43 | 1004.4 |
| 20260507231201 | 52 | 235 | 7.8 | 13.9 | 0.00 | 0.32 | 0.16 | 43 | 1004.4 |
| 20260507230700 | 53 | 231 | 3.5 | 14.8 | 0.00 | 0.32 | 0.16 | 44 | 1004.3 |
| 20260507230200 | 53 | 262 | 7.0 | 15.6 | 0.00 | 0.32 | 0.16 | 43 | 1004.2 |
| 20260507225700 | 53 | 249 | 10.4 | 17.4 | 0.00 | 0.54 | 0.16 | 42 | 1004.0 |
| 20260507225159 | 54 | 245 | 9.6 | 17.4 | 0.00 | 0.54 | 0.16 | 43 | 1003.8 |
| 20260507224659 | 54 | 224 | 8.7 | 17.4 | 0.00 | 0.54 | 0.16 | 43 | 1003.8 |
| 20260507224138 | 54 | 242 | 9.6 | 17.4 | 0.00 | 0.54 | 0.16 | 42 | 1003.6 |
| 20260507223638 | 55 | 276 | 6.1 | 16.5 | 0.00 | 0.54 | 0.16 | 44 | 1003.6 |
| 20260507223137 | 55 | 232 | 8.7 | 15.6 | 0.00 | 0.54 | 0.16 | 43 | 1003.4 |
| 20260507222637 | 56 | 219 | 5.2 | 13.0 | 0.00 | 0.54 | 0.16 | 44 | 1003.3 |
| 20260507222137 | 56 | 244 | 7.0 | 14.8 | 0.00 | 0.54 | 0.16 | 43 | 1003.3 |
| 20260507221636 | 56 | 275 | 6.1 | 13.9 | 0.00 | 0.54 | 0.16 | 44 | 1003.2 |
| 20260507221136 | 56 | 222 | 7.8 | 17.4 | 0.00 | 0.54 | 0.16 | 44 | 1003.2 |
| 20260507220635 | 57 | 241 | 8.7 | 17.4 | 0.00 | 0.54 | 0.16 | 44 | 1003.0 |
| 20260507220135 | 57 | 290 | 8.7 | 17.4 | 0.00 | 0.54 | 0.16 | 45 | 1003.0 |
| 20260507215635 | 57 | 227 | 8.7 | 15.6 | 0.00 | 0.61 | 0.16 | 46 | 1002.9 |
| 20260507215135 | 57 | 258 | 7.8 | 15.6 | 0.00 | 0.61 | 0.16 | 46 | 1002.9 |
| 20260507214634 | 56 | 234 | 8.7 | 15.6 | 0.00 | 0.61 | 0.16 | 46 | 1002.9 |
| 20260507214134 | 57 | 279 | 5.2 | 14.8 | 0.00 | 0.61 | 0.16 | 44 | 1002.7 |
| 20260507213634 | 57 | 299 | 6.1 | 11.3 | 0.00 | 0.61 | 0.16 | 41 | 1002.6 |
| 20260507213133 | 57 | 245 | 2.6 | 13.0 | 0.00 | 0.61 | 0.16 | 40 | 1002.6 |
| 20260507212633 | 58 | 232 | 7.0 | 13.9 | 0.00 | 0.61 | 0.16 | 37 | 1002.5 |
| 20260507212133 | 59 | 270 | 8.7 | 13.9 | 0.00 | 0.61 | 0.16 | 35 | 1002.5 |
| 20260507211633 | 59 | 248 | 6.1 | 13.9 | 0.00 | 0.61 | 0.16 | 35 | 1002.4 |
| 20260507211132 | 59 | 250 | 6.1 | 14.8 | 0.00 | 0.61 | 0.16 | 36 | 1002.3 |
| 20260507210632 | 60 | 223 | 7.0 | 14.8 | 0.00 | 0.61 | 0.16 | 35 | 1002.3 |
| 20260507210131 | 61 | 236 | 5.2 | 16.5 | 0.00 | 0.61 | 0.16 | 35 | 1002.2 |
| 20260507205631 | 60 | 234 | 6.1 | 16.5 | 0.00 | 0.73 | 0.16 | 40 | 1002.3 |
| 20260507205131 | 60 | 210 | 5.2 | 21.7 | 0.00 | 0.73 | 0.16 | 41 | 1002.3 |
| 20260507204610 | 60 | 231 | 7.0 | 16.5 | 0.00 | 0.73 | 0.16 | 41 | 1002.2 |
| 20260507204048 | 60 | 235 | 4.3 | 11.3 | 0.00 | 0.73 | 0.16 | 41 | 1002.1 |
| 20260507203506 | 60 | 195 | 6.1 | 12.2 | 0.00 | 0.73 | 0.16 | 43 | 1002.1 |
| 20260507203149 | 59 | 198 | 4.3 | 13.0 | 0.00 | 0.73 | 0.16 | 42 | 1002.1 |
| 20260507203006 | 60 | 237 | 6.1 | 13.0 | 0.00 | 0.73 | 0.16 | 41 | 1001.9 |
| 20260507202505 | 61 | 216 | 7.8 | 13.0 | 0.00 | 0.73 | 0.16 | 44 | 1002.0 |
| 20260507202005 | 62 | 201 | 4.3 | 11.3 | 0.00 | 0.73 | 0.16 | 44 | 1002.0 |
| 20260507201632 | 61 | 166 | 4.3 | 13.0 | 0.00 | 0.73 | 0.16 | 47 | 1002.0 |
| 20260507201504 | 61 | 183 | 5.2 | 13.0 | 0.00 | 0.73 | 0.16 | 46 | 1001.9 |
| 20260507201004 | 60 | 224 | 6.1 | 13.0 | 0.00 | 0.73 | 0.16 | 47 | 1002.1 |
| 20260507200504 | 59 | 261 | 3.5 | 13.9 | 0.00 | 0.73 | 0.16 | 47 | 1002.1 |
| 20260507200111 | 59 | 257 | 7.8 | 13.9 | 0.00 | 0.73 | 0.16 | 48 | 1002.1 |
| 20260507200004 | 59 | 200 | 7.0 | 13.9 | 0.00 | 0.73 | 0.16 | 49 | 1002.1 |
| 20260507195503 | 58 | 238 | 1.7 | 9.6 | 0.00 | 0.90 | 0.16 | 50 | 1002.1 |
| 20260507194942 | 58 | 249 | 5.2 | 12.2 | 0.00 | 0.90 | 0.16 | 50 | 1002.1 |
| 20260507194556 | 58 | 211 | 4.3 | 13.0 | 0.00 | 0.90 | 0.16 | 50 | 1002.2 |
| 20260507194420 | 58 | 202 | 6.1 | 13.0 | 0.00 | 0.90 | 0.16 | 51 | 1002.2 |
| 20260507193920 | 59 | 260 | 6.1 | 13.0 | 0.00 | 0.90 | 0.16 | 49 | 1002.1 |
| 20260507193420 | 60 | 160 | 5.2 | 10.4 | 0.00 | 0.90 | 0.16 | 48 | 1002.1 |
| 20260507193046 | 60 | 181 | 5.2 | 13.0 | 0.00 | 0.90 | 0.16 | 51 | 1002.2 |
| 20260507192920 | 60 | 254 | 7.0 | 13.0 | 0.00 | 0.90 | 0.16 | 49 | 1002.1 |
| 20260507192337 | 59 | 238 | 6.1 | 13.0 | 0.00 | 0.90 | 0.16 | 50 | 1002.2 |
| 20260507191837 | 59 | 200 | 3.5 | 12.2 | 0.00 | 0.90 | 0.16 | 52 | 1002.2 |
| 20260507191526 | 59 | 201 | 6.1 | 15.6 | 0.00 | 0.90 | 0.16 | 49 | 1002.1 |
| 20260507191316 | 59 | 223 | 4.3 | 15.6 | 0.00 | 0.90 | 0.16 | 50 | 1002.1 |
| 20260507190754 | 60 | 224 | 7.0 | 15.6 | 0.00 | 0.90 | 0.16 | 50 | 1002.0 |
| 20260507190254 | 61 | 164 | 3.5 | 10.4 | 0.00 | 0.90 | 0.16 | 44 | 1002.0 |
| 20260507185754 | 60 | 175 | 6.1 | 10.4 | 0.00 | 0.92 | 0.16 | 48 | 1002.0 |
| 20260507185233 | 59 | 253 | 3.5 | 11.3 | 0.00 | 0.92 | 0.16 | 51 | 1002.1 |
| 20260507184732 | 59 | 214 | 5.2 | 11.3 | 0.00 | 0.92 | 0.16 | 50 | 1002.2 |
| 20260507184232 | 59 | 160 | 1.7 | 7.8 | 0.00 | 0.92 | 0.16 | 53 | 1002.1 |
| 20260507183731 | 59 | 242 | 3.5 | 7.8 | 0.00 | 0.92 | 0.16 | 51 | 1002.1 |
| 20260507183231 | 59 | 127 | 4.3 | 9.6 | 0.00 | 0.92 | 0.16 | 50 | 1002.3 |
| 20260507182731 | 59 | 201 | 5.2 | 10.4 | 0.00 | 0.92 | 0.16 | 50 | 1002.4 |
| 20260507182230 | 59 | 191 | 4.3 | 10.4 | 0.00 | 0.92 | 0.16 | 52 | 1002.5 |
| 20260507181730 | 59 | 141 | 5.2 | 9.6 | 0.00 | 0.92 | 0.16 | 55 | 1002.6 |
| 20260507181209 | 58 | 145 | 4.3 | 10.4 | 0.00 | 0.92 | 0.16 | 51 | 1002.5 |
| 20260507180710 | 59 | 199 | 5.2 | 9.6 | 0.00 | 0.92 | 0.16 | 52 | 1002.5 |
| 20260507180208 | 59 | 149 | 3.5 | 8.7 | 0.00 | 0.92 | 0.16 | 53 | 1002.5 |
| 20260507175708 | 58 | 155 | 5.2 | 8.7 | 0.00 | 0.92 | 0.16 | 55 | 1002.6 |
| 20260507175208 | 58 | 134 | 5.2 | 9.6 | 0.00 | 0.92 | 0.16 | 55 | 1002.7 |
| 20260507174646 | 58 | 144 | 3.5 | 7.8 | 0.00 | 0.92 | 0.16 | 57 | 1002.7 |
| 20260507174146 | 58 | 199 | 2.6 | 7.8 | 0.00 | 0.92 | 0.16 | 58 | 1002.7 |
| 20260507173645 | 58 | 170 | 1.7 | 7.8 | 0.00 | 0.92 | 0.16 | 60 | 1002.8 |
| 20260507173145 | 58 | 216 | 3.5 | 7.8 | 0.00 | 0.92 | 0.16 | 58 | 1002.7 |
| 20260507172645 | 58 | 224 | 1.7 | 7.8 | 0.00 | 0.92 | 0.16 | 55 | 1002.7 |
| 20260507172144 | 58 | 218 | 1.7 | 8.7 | 0.00 | 0.92 | 0.16 | 57 | 1002.8 |
| 20260507171644 | 58 | 165 | 3.5 | 7.8 | 0.00 | 0.92 | 0.16 | 58 | 1002.9 |
| 20260507171144 | 57 | 201 | 2.6 | 8.7 | 0.00 | 0.92 | 0.16 | 58 | 1002.9 |
| 20260507170643 | 57 | 160 | 2.6 | 8.7 | 0.00 | 0.92 | 0.16 | 57 | 1002.9 |
| 20260507170143 | 57 | 214 | 3.5 | 6.1 | 0.00 | 0.92 | 0.16 | 60 | 1003.0 |
| 20260507165643 | 57 | 183 | 3.5 | 7.0 | 0.00 | 0.92 | 0.16 | 57 | 1003.0 |
| 20260507165143 | 57 | 222 | 1.7 | 8.7 | 0.00 | 0.92 | 0.16 | 59 | 1003.0 |
| 20260507164643 | 57 | 205 | 2.6 | 6.1 | 0.00 | 0.92 | 0.16 | 64 | 1003.1 |
| 20260507164142 | 57 | 174 | 3.5 | 8.7 | 0.00 | 0.92 | 0.16 | 60 | 1003.2 |
| 20260507163642 | 57 | 211 | 3.5 | 8.7 | 0.00 | 0.92 | 0.16 | 60 | 1003.2 |
| 20260507163141 | 57 | 218 | 2.6 | 7.0 | 0.00 | 0.92 | 0.16 | 58 | 1003.2 |
| 20260507162641 | 58 | 134 | 4.3 | 8.7 | 0.00 | 0.92 | 0.16 | 58 | 1003.4 |
| 20260507162141 | 58 | 237 | 4.3 | 8.7 | 0.00 | 0.92 | 0.16 | 60 | 1003.4 |
| 20260507161659 | 57 | 123 | 0.9 | 7.0 | 0.00 | 0.92 | 0.16 | 66 | 1003.6 |
| 20260507161619 | 57 | 207 | 0.9 | 7.0 | 0.00 | 0.92 | 0.16 | 62 | 1003.5 |
| 20260507161119 | 57 | 159 | 3.5 | 7.0 | 0.00 | 0.92 | 0.16 | 61 | 1003.6 |
| 20260507160619 | 57 | 87 | 1.7 | 6.1 | 0.00 | 0.92 | 0.16 | 61 | 1003.6 |
| 20260507160141 | 57 | 204 | 1.7 | 6.1 | 0.00 | 0.92 | 0.16 | 61 | 1003.9 |
| 20260507160118 | 57 | 204 | 1.7 | 6.1 | 0.00 | 0.92 | 0.16 | 61 | 1003.8 |
| 20260507155618 | 56 | 187 | 0.9 | 6.1 | 0.00 | 0.92 | 0.16 | 59 | 1003.9 |
| 20260507155118 | 56 | 290 | 0.0 | 1.7 | 0.00 | 0.92 | 0.16 | 65 | 1003.9 |
| 20260507154629 | 55 | 293 | 0.9 | 4.3 | 0.00 | 0.92 | 0.16 | 64 | 1004.0 |
| 20260507154617 | 55 | 256 | 0.9 | 4.3 | 0.00 | 0.92 | 0.16 | 64 | 1003.9 |
| 20260507154117 | 55 | 255 | 1.7 | 4.3 | 0.00 | 0.92 | 0.16 | 64 | 1003.8 |
| 20260507153616 | 56 | 4 | 1.7 | 4.3 | 0.00 | 0.92 | 0.16 | 63 | 1003.9 |
| 20260507153114 | 57 | 29 | 2.6 | 6.1 | 0.00 | 0.92 | 0.16 | 58 | 1003.9 |
| 20260507153055 | 57 | 31 | 2.6 | 6.1 | 0.00 | 0.92 | 0.16 | 58 | 1003.8 |
| 20260507152555 | 57 | 38 | 0.0 | 4.3 | 0.00 | 0.92 | 0.16 | 62 | 1003.9 |
| 20260507152055 | 56 | 6 | 1.7 | 8.7 | 0.00 | 0.92 | 0.16 | 62 | 1003.9 |
| 20260507151556 | 57 | 21 | 2.6 | 8.7 | 0.00 | 0.92 | 0.16 | 63 | 1004.1 |
| 20260507151554 | 57 | 31 | 2.6 | 8.7 | 0.00 | 0.92 | 0.16 | 63 | 1004.0 |
| 20260507151054 | 57 | 68 | 3.5 | 7.0 | 0.00 | 0.92 | 0.16 | 69 | 1004.1 |
| 20260507150553 | 56 | 102 | 1.7 | 4.3 | 0.00 | 0.92 | 0.16 | 68 | 1004.3 |
| 20260507150053 | 55 | 120 | 2.6 | 5.2 | 0.00 | 0.92 | 0.16 | 66 | 1004.2 |
| 20260507150035 | 55 | 120 | 2.6 | 5.2 | 0.00 | 0.92 | 0.16 | 66 | 1004.3 |
| 20260507145552 | 56 | 181 | 2.6 | 5.2 | 0.00 | 0.92 | 0.16 | 67 | 1004.3 |
| 20260507145052 | 55 | 38 | 0.9 | 4.3 | 0.00 | 0.92 | 0.16 | 72 | 1004.3 |
| 20260507144552 | 55 | 203 | 1.7 | 4.3 | 0.00 | 0.92 | 0.16 | 64 | 1004.3 |
| 20260507144525 | 55 | 203 | 1.7 | 4.3 | 0.00 | 0.92 | 0.16 | 64 | 1004.4 |
| 20260507144052 | 55 | 269 | 0.9 | 5.2 | 0.00 | 0.92 | 0.16 | 66 | 1004.3 |
| 20260507143530 | 55 | 339 | 2.6 | 5.2 | 0.00 | 0.92 | 0.16 | 69 | 1004.3 |
| 20260507143030 | 55 | 284 | 1.7 | 4.3 | 0.00 | 0.92 | 0.16 | 71 | 1004.4 |
| 20260507142530 | 54 | 162 | 1.7 | 3.5 | 0.00 | 0.92 | 0.16 | 72 | 1004.3 |
| 20260507142029 | 54 | 198 | 1.7 | 4.3 | 0.00 | 0.92 | 0.16 | 71 | 1004.5 |
| 20260507141529 | 54 | 234 | 1.7 | 4.3 | 0.00 | 0.92 | 0.16 | 74 | 1004.7 |
| 20260507141029 | 54 | 229 | 1.7 | 5.2 | 0.00 | 0.92 | 0.16 | 70 | 1004.8 |
| 20260507140528 | 54 | 285 | 1.7 | 4.3 | 0.00 | 0.92 | 0.16 | 73 | 1004.8 |
| 20260507140007 | 54 | 264 | 0.0 | 5.2 | 0.00 | 0.92 | 0.16 | 73 | 1004.8 |
| 20260507135424 | 54 | 293 | 1.7 | 7.0 | 0.00 | 0.92 | 0.16 | 76 | 1004.7 |
| 20260507134924 | 53 | 268 | 2.6 | 7.0 | 0.00 | 0.92 | 0.16 | 75 | 1004.7 |
| 20260507134403 | 53 | 274 | 2.6 | 7.0 | 0.00 | 0.92 | 0.16 | 73 | 1004.8 |
| 20260507133902 | 53 | 245 | 3.5 | 7.8 | 0.00 | 0.92 | 0.16 | 75 | 1004.8 |
| 20260507133341 | 52 | 256 | 4.3 | 7.8 | 0.00 | 0.92 | 0.16 | 76 | 1004.8 |
| 20260507132841 | 52 | 260 | 1.7 | 7.8 | 0.00 | 0.92 | 0.16 | 76 | 1004.8 |
| 20260507132340 | 52 | 205 | 3.5 | 7.8 | 0.00 | 0.92 | 0.16 | 75 | 1004.8 |
| 20260507131840 | 51 | 262 | 2.6 | 7.8 | 0.00 | 0.92 | 0.16 | 76 | 1004.9 |
| 20260507131340 | 51 | 265 | 3.5 | 7.8 | 0.00 | 0.92 | 0.16 | 77 | 1004.9 |
| 20260507130839 | 52 | 287 | 2.6 | 7.8 | 0.00 | 0.92 | 0.16 | 78 | 1005.0 |
| 20260507130339 | 51 | 257 | 3.5 | 7.8 | 0.00 | 0.92 | 0.16 | 77 | 1005.1 |
| 20260507125839 | 51 | 226 | 4.3 | 7.0 | 0.00 | 0.92 | 0.16 | 78 | 1005.0 |
| 20260507125338 | 51 | 222 | 2.6 | 7.0 | 0.00 | 0.92 | 0.16 | 80 | 1004.8 |
| 20260507124838 | 51 | 258 | 1.7 | 7.0 | 0.00 | 0.92 | 0.16 | 81 | 1004.8 |
| 20260507124338 | 50 | 233 | 4.3 | 8.7 | 0.00 | 0.92 | 0.16 | 79 | 1004.8 |
| 20260507123838 | 50 | 244 | 2.6 | 8.7 | 0.00 | 0.92 | 0.16 | 81 | 1004.9 |
| 20260507123337 | 49 | 231 | 3.5 | 7.8 | 0.00 | 0.92 | 0.16 | 83 | 1005.0 |
| 20260507122837 | 49 | 253 | 3.5 | 12.2 | 0.00 | 0.92 | 0.16 | 81 | 1005.1 |
| 20260507122337 | 49 | 241 | 7.0 | 12.2 | 0.00 | 0.92 | 0.16 | 80 | 1005.2 |
| 20260507121837 | 49 | 226 | 6.1 | 11.3 | 0.00 | 0.92 | 0.16 | 81 | 1005.2 |
| 20260507121337 | 49 | 266 | 2.6 | 8.7 | 0.00 | 0.92 | 0.16 | 85 | 1005.3 |
| 20260507120815 | 49 | 235 | 3.5 | 8.7 | 0.00 | 0.92 | 0.16 | 83 | 1005.4 |
| 20260507120254 | 48 | 256 | 2.6 | 12.2 | 0.00 | 0.92 | 0.16 | 84 | 1005.3 |
| 20260507115754 | 48 | 207 | 6.1 | 12.2 | 0.00 | 0.92 | 0.16 | 84 | 1005.4 |
| 20260507115253 | 47 | 250 | 1.7 | 9.6 | 0.00 | 0.92 | 0.16 | 85 | 1005.4 |
| 20260507114753 | 47 | 255 | 3.5 | 9.6 | 0.00 | 0.92 | 0.16 | 87 | 1005.3 |
| 20260507114651 | 47 | 251 | 4.3 | 7.8 | 0.00 | 0.92 | 0.16 | 86 | 1005.3 |
| 20260507114253 | 47 | 212 | 2.6 | 6.1 | 0.00 | 0.92 | 0.16 | 88 | 1005.2 |
| 20260507113752 | 47 | 188 | 1.7 | 5.2 | 0.00 | 0.92 | 0.16 | 89 | 1005.3 |
| 20260507113252 | 47 | 168 | 1.7 | 5.2 | 0.00 | 0.92 | 0.16 | 89 | 1005.6 |
| 20260507113137 | 47 | 167 | 2.6 | 6.1 | 0.00 | 0.92 | 0.16 | 89 | 1005.7 |
| 20260507112752 | 47 | 227 | 1.7 | 6.1 | 0.00 | 0.92 | 0.16 | 89 | 1005.6 |
| 20260507112230 | 46 | 236 | 3.5 | 5.2 | 0.00 | 0.92 | 0.16 | 89 | 1005.4 |
| 20260507111730 | 46 | 206 | 2.6 | 7.0 | 0.00 | 0.92 | 0.16 | 91 | 1005.1 |
| 20260507111622 | 46 | 211 | 2.6 | 7.0 | 0.00 | 0.92 | 0.16 | 92 | 1005.2 |
| 20260507111148 | 46 | 233 | 2.6 | 7.0 | 0.00 | 0.92 | 0.16 | 91 | 1005.3 |
| 20260507110647 | 45 | 232 | 2.6 | 5.2 | 0.00 | 0.92 | 0.16 | 93 | 1005.2 |
| 20260507110147 | 45 | 235 | 1.7 | 5.2 | 0.00 | 0.92 | 0.16 | 94 | 1005.2 |
| 20260507110059 | 45 | 233 | 1.7 | 5.2 | 0.00 | 0.92 | 0.16 | 94 | 1005.2 |
| 20260507105646 | 44 | 214 | 1.7 | 4.3 | 0.00 | 0.92 | 0.16 | 94 | 1005.3 |
| 20260507105146 | 44 | 263 | 0.9 | 4.3 | 0.00 | 0.92 | 0.16 | 95 | 1005.4 |
| 20260507104646 | 44 | 247 | 1.7 | 4.3 | 0.00 | 0.92 | 0.16 | 95 | 1005.5 |
| 20260507104543 | 44 | 276 | 1.7 | 4.3 | 0.00 | 0.92 | 0.16 | 95 | 1005.5 |
| 20260507104103 | 44 | 293 | 1.7 | 3.5 | 0.00 | 0.92 | 0.16 | 95 | 1005.3 |
| 20260507103603 | 44 | 273 | 0.9 | 7.0 | 0.00 | 0.92 | 0.16 | 95 | 1004.9 |
| 20260507103103 | 44 | 244 | 1.7 | 7.0 | 0.00 | 0.92 | 0.16 | 96 | 1004.9 |
| 20260507103029 | 44 | 263 | 1.7 | 5.2 | 0.00 | 0.92 | 0.16 | 96 | 1004.9 |
| 20260507102602 | 44 | 199 | 1.7 | 3.5 | 0.00 | 0.92 | 0.16 | 96 | 1004.9 |
| 20260507102102 | 43 | 198 | 0.9 | 3.5 | 0.00 | 0.92 | 0.16 | 97 | 1005.1 |
| 20260507101601 | 43 | 199 | 0.9 | 3.5 | 0.00 | 0.92 | 0.16 | 97 | 1005.0 |
| 20260507101511 | 43 | 199 | 0.9 | 3.5 | 0.00 | 0.92 | 0.16 | 97 | 1004.9 |
| 20260507101101 | 43 | 185 | 0.0 | 2.6 | 0.00 | 0.92 | 0.16 | 97 | 1004.8 |
| 20260507100601 | 43 | 185 | 0.9 | 2.6 | 0.00 | 0.92 | 0.16 | 97 | 1005.1 |
| 20260507095600 | 43 | 209 | 0.0 | 2.6 | 0.01 | 0.92 | 0.16 | 97 | 1004.9 |
| 20260507095100 | 43 | 170 | 0.0 | 1.7 | 0.01 | 0.92 | 0.16 | 97 | 1004.9 |
| 20260507094600 | 43 | 141 | 0.0 | 1.7 | 0.01 | 0.92 | 0.16 | 97 | 1004.9 |
| 20260507094039 | 43 | 154 | 0.0 | 1.7 | 0.01 | 0.92 | 0.16 | 97 | 1004.9 |
| 20260507093538 | 43 | 251 | 0.0 | 1.7 | 0.01 | 0.92 | 0.16 | 97 | 1004.8 |
| 20260507093038 | 43 | 251 | 0.0 | 1.7 | 0.01 | 0.92 | 0.16 | 96 | 1005.0 |
| 20260507092536 | 43 | 251 | 0.0 | 1.7 | 0.01 | 0.92 | 0.16 | 96 | 1004.9 |
| 20260507092036 | 43 | 251 | 0.0 | 2.6 | 0.01 | 0.92 | 0.16 | 96 | 1005.0 |
| 20260507091536 | 43 | 251 | 0.9 | 2.6 | 0.01 | 0.92 | 0.16 | 96 | 1005.1 |